This is the latest recevied weather packets stored in our database for station/object WE8L. If no packets are shown the sender has not sent any weather packets the latest 10 day(s).
| Time | Temp. | Humidity | Pressure | Rain* | Wind** | Luminosity | Snow |
|---|---|---|---|---|---|---|---|
| 1777641162 | 10.56° C | 68% | 1014.4 hPa | 0 mm | - | 41 W/m² | - |
| 1777640857 | 10.56° C | 68% | 1014.7 hPa | 0 mm | - | 25 W/m² | - |
| 1777640555 | 10.56° C | 66% | 1014.6 hPa | 0 mm | - | 30 W/m² | - |
| 1777640251 | 10.56° C | 66% | 1014.6 hPa | 0 mm | - | 31 W/m² | - |
| 1777639948 | 10.56° C | 66% | 1014.7 hPa | 0 mm | - | 36 W/m² | - |
| 1777639645 | 10.56° C | 66% | 1014.5 hPa | 0 mm | - | 35 W/m² | - |
| 1777639342 | 10.56° C | 66% | 1014.4 hPa | 0 mm | - | 44 W/m² | - |
| 1777639037 | 10.56° C | 68% | 1014.5 hPa | 0 mm | - | 27 W/m² | - |
| 1777638735 | 10.56° C | 68% | 1014.5 hPa | 0 mm | - | 17 W/m² | - |
| 1777638431 | 10.56° C | 67% | 1014.4 hPa | 0 mm | - | 18 W/m² | - |
| 1777638128 | 10° C | 69% | 1014.2 hPa | 0 mm | - | 16 W/m² | - |
| 1777637823 | 10° C | 68% | 1014.3 hPa | 0 mm | - | 15 W/m² | - |
| 1777637520 | 10° C | 69% | 1014.5 hPa | 0 mm | - | 15 W/m² | - |
| 1777637218 | 10° C | 68% | 1014.5 hPa | 0 mm | - | 6 W/m² | - |
| 1777636915 | 10° C | 68% | 1014.2 hPa | 0 mm | - | 4 W/m² | - |
| 1777636610 | 10° C | 68% | 1014.4 hPa | 0 mm | - | 3 W/m² | - |
| 1777636306 | 10° C | 68% | 1014.2 hPa | 0 mm | - | 4 W/m² | - |
| 1777636001 | 10° C | 67% | 1014.5 hPa | 0 mm | - | 5 W/m² | - |
| 1777635697 | 10° C | 67% | 1014.4 hPa | 0 mm | - | 3 W/m² | - |
| 1777635394 | 10° C | 66% | 1014.7 hPa | 0 mm | - | 2 W/m² | - |
| 1777635091 | 10° C | 67% | 1014.6 hPa | 0 mm | - | 3 W/m² | - |
| 1777634787 | 10° C | 67% | 1014.4 hPa | 0 mm | - | 4 W/m² | - |
| 1777634484 | 10° C | 66% | 1014.2 hPa | 0 mm | - | 3 W/m² | - |
| 1777634181 | 10° C | 67% | 1014.5 hPa | 0 mm | - | 2 W/m² | - |
| 1777633877 | 10° C | 66% | 1014.4 hPa | 0 mm | - | 3 W/m² | - |
* Rain latest hour (hover to see other rain measurements)
** Current wind speed in m/s (hover to see current wind gust speed)